GW1883 Weather Reports


time (UTC)temp
C
wind
direction
speed
KPH
gust
KPH
rain 1hr
cm
rain 24hr
cm
rain mn
cm
humidity
%
barometer
mb
20260505201305 25 153 9.7 20.9 0.00 0.00 0.00 52 1016.2
20260505201205 25 199 11.3 20.9 0.00 0.00 0.00 51 1016.2
20260505201103 25 167 9.7 20.9 0.00 0.00 0.00 53 1016.3
20260505201006 25 161 8.0 20.9 0.00 0.00 0.00 53 1016.3
20260505200804 25 140 9.7 20.9 0.00 0.00 0.00 53 1016.3
20260505200705 25 104 9.7 20.9 0.00 0.00 0.00 52 1016.3
20260505200604 25 127 11.3 22.5 0.00 0.00 0.00 51 1016.3
20260505200506 25 83 11.3 20.9 0.00 0.00 0.00 51 1016.4
20260505200404 25 200 8.0 22.5 0.00 0.00 0.00 51 1016.5
20260505200304 25 144 8.0 22.5 0.00 0.00 0.00 51 1016.4
20260505200205 25 178 9.7 22.5 0.00 0.00 0.00 52 1016.4
20260505200104 25 173 8.0 22.5 0.00 0.00 0.00 51 1016.5
20260505200007 25 86 9.7 22.5 0.00 0.00 0.00 52 1016.4
20260505195903 25 93 12.9 22.5 0.00 0.00 0.00 53 1016.5
20260505195802 25 130 9.7 25.7 0.00 0.00 0.00 52 1016.4
20260505195703 25 115 9.7 25.7 0.00 0.00 0.00 53 1016.4
20260505195603 25 132 11.3 25.7 0.00 0.00 0.00 52 1016.5
20260505195505 25 166 9.7 25.7 0.00 0.00 0.00 52 1016.6
20260505195404 25 93 9.7 25.7 0.00 0.00 0.00 52 1016.7
20260505195305 25 93 11.3 25.7 0.00 0.00 0.00 51 1016.7
20260505195203 25 157 11.3 25.7 0.00 0.00 0.00 51 1016.7
20260505195104 26 111 14.5 25.7 0.00 0.00 0.00 50 1016.7
20260505195006 26 190 16.1 25.7 0.00 0.00 0.00 51 1016.7
20260505194903 26 167 12.9 27.4 0.00 0.00 0.00 51 1016.7
20260505194803 26 133 11.3 20.9 0.00 0.00 0.00 51 1016.8
20260505194703 26 168 9.7 20.9 0.00 0.00 0.00 52 1016.8
20260505194604 26 143 6.4 20.9 0.00 0.00 0.00 52 1016.7
20260505194506 26 73 4.8 20.9 0.00 0.00 0.00 52 1016.8
20260505194402 26 202 4.8 20.9 0.00 0.00 0.00 52 1016.8
20260505194304 26 127 8.0 20.9 0.00 0.00 0.00 51 1016.8
20260505194203 26 98 12.9 20.9 0.00 0.00 0.00 51 1016.9
20260505194102 26 102 12.9 25.7 0.00 0.00 0.00 51 1016.9
20260505194005 26 169 9.7 20.9 0.00 0.00 0.00 52 1016.9
20260505193803 26 128 6.4 20.9 0.00 0.00 0.00 53 1017.0
20260505193703 26 153 9.7 22.5 0.00 0.00 0.00 51 1017.0
20260505193604 26 174 9.7 22.5 0.00 0.00 0.00 51 1016.9
20260505193505 26 186 9.7 22.5 0.00 0.00 0.00 54 1016.9
20260505193402 26 155 9.7 22.5 0.00 0.00 0.00 52 1016.9
20260505193304 26 159 8.0 22.5 0.00 0.00 0.00 52 1016.9
20260505193204 26 86 9.7 22.5 0.00 0.00 0.00 52 1017.0
20260505193103 26 135 11.3 22.5 0.00 0.00 0.00 51 1017.0
20260505193006 26 138 11.3 22.5 0.00 0.00 0.00 51 1017.0
20260505192804 26 137 8.0 20.9 0.00 0.00 0.00 53 1017.0
20260505192603 26 129 9.7 19.3 0.00 0.00 0.00 51 1017.1
20260505192505 26 82 8.0 19.3 0.00 0.00 0.00 51 1017.1
20260505192403 26 67 8.0 19.3 0.00 0.00 0.00 51 1017.1
20260505192305 26 182 6.4 25.7 0.00 0.00 0.00 49 1017.1
20260505192103 26 101 11.3 25.7 0.00 0.00 0.00 51 1017.2
20260505192005 26 100 8.0 25.7 0.00 0.00 0.00 51 1017.3
20260505191803 26 173 4.8 25.7 0.00 0.00 0.00 51 1017.2
20260505191703 26 159 8.0 25.7 0.00 0.00 0.00 52 1017.2
20260505191604 26 134 11.3 25.7 0.00 0.00 0.00 50 1017.3
20260505191505 26 143 9.7 25.7 0.00 0.00 0.00 50 1017.2
20260505191303 26 117 8.0 17.7 0.00 0.00 0.00 53 1017.3
20260505191203 26 175 8.0 17.7 0.00 0.00 0.00 53 1017.3
20260505190903 26 155 8.0 17.7 0.00 0.00 0.00 52 1017.4
20260505190802 26 213 6.4 17.7 0.00 0.00 0.00 54 1017.4
20260505190704 26 161 8.0 17.7 0.00 0.00 0.00 52 1017.4
20260505190403 26 136 8.0 16.1 0.00 0.00 0.00 52 1017.4
20260505190303 26 230 11.3 16.1 0.00 0.00 0.00 52 1017.4
20260505190204 26 167 9.7 17.7 0.00 0.00 0.00 52 1017.4
20260505190104 26 136 11.3 16.1 0.00 0.00 0.00 53 1017.3
20260505190007 26 178 11.3 16.1 0.00 0.00 0.00 53 1017.4
20260505185905 26 191 9.7 16.1 0.00 0.00 0.00 52 1017.3
20260505185703 26 198 6.4 24.1 0.00 0.00 0.00 52 1017.4
20260505185603 26 153 8.0 24.1 0.00 0.00 0.00 52 1017.4
20260505185506 26 190 11.3 24.1 0.00 0.00 0.00 52 1017.4
20260505185404 26 152 9.7 24.1 0.00 0.00 0.00 53 1017.4
20260505185305 26 127 8.0 24.1 0.00 0.00 0.00 54 1017.3
20260505185203 26 202 9.7 24.1 0.00 0.00 0.00 53 1017.4
20260505184703 26 96 9.7 20.9 0.00 0.00 0.00 53 1017.3
20260505184603 26 103 6.4 20.9 0.00 0.00 0.00 53 1017.3
20260505184506 26 85 8.0 20.9 0.00 0.00 0.00 54 1017.3
20260505184403 25 170 8.0 20.9 0.00 0.00 0.00 54 1017.3
20260505184303 25 209 8.0 20.9 0.00 0.00 0.00 54 1017.2
20260505184203 25 125 11.3 20.9 0.00 0.00 0.00 52 1017.2
20260505184103 26 205 9.7 20.9 0.00 0.00 0.00 53 1017.3
20260505184005 26 207 9.7 22.5 0.00 0.00 0.00 55 1017.1
20260505183904 26 97 12.9 22.5 0.00 0.00 0.00 54 1017.2
20260505183803 26 181 12.9 24.1 0.00 0.00 0.00 53 1017.3
20260505183703 26 120 11.3 19.3 0.00 0.00 0.00 53 1017.2
20260505183604 26 163 11.3 17.7 0.00 0.00 0.00 53 1017.3
20260505183506 26 180 11.3 17.7 0.00 0.00 0.00 53 1017.3
20260505183403 26 136 12.9 17.7 0.00 0.00 0.00 53 1017.3
20260505183303 26 147 9.7 17.7 0.00 0.00 0.00 53 1017.2
20260505183204 26 162 9.7 19.3 0.00 0.00 0.00 52 1017.2
20260505183103 26 85 9.7 20.9 0.00 0.00 0.00 53 1017.2
20260505183007 26 156 9.7 19.3 0.00 0.00 0.00 54 1017.2
20260505182703 26 232 9.7 19.3 0.00 0.00 0.00 53 1017.2
20260505182603 26 127 9.7 19.3 0.00 0.00 0.00 53 1017.3
20260505182505 26 103 9.7 19.3 0.00 0.00 0.00 53 1017.1
20260505182403 26 125 9.7 22.5 0.00 0.00 0.00 52 1017.1
20260505182305 26 178 8.0 19.3 0.00 0.00 0.00 53 1017.1
20260505182203 26 84 8.0 19.3 0.00 0.00 0.00 55 1017.1
20260505182103 26 141 9.7 19.3 0.00 0.00 0.00 54 1017.0
20260505182006 26 141 9.7 19.3 0.00 0.00 0.00 53 1017.0
20260505181904 26 94 9.7 19.3 0.00 0.00 0.00 54 1017.0
20260505181803 26 173 9.7 19.3 0.00 0.00 0.00 54 1017.1
20260505181703 26 78 9.7 19.3 0.00 0.00 0.00 54 1017.0
20260505181603 26 214 11.3 19.3 0.00 0.00 0.00 53 1017.0
20260505181506 26 144 11.3 19.3 0.00 0.00 0.00 54 1017.1
20260505181403 26 149 11.3 19.3 0.00 0.00 0.00 54 1017.1
20260505181303 26 140 12.9 19.3 0.00 0.00 0.00 54 1017.0
20260505181203 26 182 8.0 19.3 0.00 0.00 0.00 54 1017.1
20260505180903 26 142 9.7 19.3 0.00 0.00 0.00 55 1017.1
20260505180804 26 159 8.0 19.3 0.00 0.00 0.00 55 1017.1
20260505180704 26 156 6.4 17.7 0.00 0.00 0.00 56 1017.1
20260505180603 26 230 9.7 17.7 0.00 0.00 0.00 55 1017.2
20260505180506 26 142 9.7 17.7 0.00 0.00 0.00 56 1017.1
20260505180302 26 189 9.7 17.7 0.00 0.00 0.00 54 1017.1
20260505180203 26 164 9.7 17.7 0.00 0.00 0.00 55 1017.1
20260505180007 26 189 11.3 17.7 0.00 0.00 0.00 54 1017.1
20260505175802 26 119 8.0 19.3 0.00 0.00 0.00 54 1017.1
20260505175703 26 177 11.3 22.5 0.00 0.00 0.00 53 1017.1
20260505175602 26 134 9.7 22.5 0.00 0.00 0.00 55 1017.3
20260505175506 26 107 8.0 22.5 0.00 0.00 0.00 56 1017.1
20260505175404 26 150 8.0 22.5 0.00 0.00 0.00 53 1017.2
20260505175305 26 155 8.0 22.5 0.00 0.00 0.00 53 1017.2
20260505175203 26 81 6.4 22.5 0.00 0.00 0.00 54 1017.1
20260505174903 26 161 11.3 22.5 0.00 0.00 0.00 53 1017.1
20260505174603 26 117 4.8 20.9 0.00 0.00 0.00 53 1017.1
20260505174506 26 155 6.4 20.9 0.00 0.00 0.00 54 1017.0
20260505174402 26 171 8.0 20.9 0.00 0.00 0.00 53 1017.0
20260505174303 26 97 12.9 20.9 0.00 0.00 0.00 53 1017.1
20260505174204 26 81 11.3 20.9 0.00 0.00 0.00 53 1017.0
20260505173904 26 151 9.7 20.9 0.00 0.00 0.00 55 1016.9
20260505173803 26 169 6.4 20.9 0.00 0.00 0.00 56 1017.0
20260505173703 26 165 8.0 20.9 0.00 0.00 0.00 54 1016.9
20260505173604 26 96 6.4 20.9 0.00 0.00 0.00 53 1017.0
20260505173506 26 159 8.0 20.9 0.00 0.00 0.00 55 1017.1
20260505173303 26 194 8.0 17.7 0.00 0.00 0.00 54 1017.1
20260505173204 26 155 6.4 14.5 0.00 0.00 0.00 53 1017.2
20260505173103 26 98 6.4 19.3 0.00 0.00 0.00 54 1017.3
20260505173006 26 80 6.4 19.3 0.00 0.00 0.00 54 1017.2
20260505172903 26 145 8.0 19.3 0.00 0.00 0.00 56 1017.3
20260505172803 26 169 6.4 19.3 0.00 0.00 0.00 54 1017.4
20260505172703 26 145 4.8 19.3 0.00 0.00 0.00 56 1017.4
20260505172603 26 154 4.8 19.3 0.00 0.00 0.00 56 1017.3
20260505172506 25 92 6.4 19.3 0.00 0.00 0.00 55 1017.4
20260505172305 25 98 9.7 19.3 0.00 0.00 0.00 55 1017.5
20260505172203 25 105 8.0 19.3 0.00 0.00 0.00 55 1017.5
20260505172103 25 146 6.4 20.9 0.00 0.00 0.00 55 1017.5
20260505172006 25 234 8.0 17.7 0.00 0.00 0.00 55 1017.5
20260505171903 25 74 9.7 17.7 0.00 0.00 0.00 53 1017.5
20260505171803 25 155 8.0 17.7 0.00 0.00 0.00 54 1017.4
20260505171702 25 136 8.0 17.7 0.00 0.00 0.00 54 1017.5
20260505171604 25 48 8.0 17.7 0.00 0.00 0.00 54 1017.5
20260505171506 25 188 12.9 17.7 0.00 0.00 0.00 53 1017.5
20260505171403 25 159 11.3 17.7 0.00 0.00 0.00 54 1017.5
20260505171303 25 173 9.7 17.7 0.00 0.00 0.00 54 1017.5
20260505171204 25 175 9.7 17.7 0.00 0.00 0.00 54 1017.4
20260505170903 25 203 4.8 22.5 0.00 0.00 0.00 55 1017.5
20260505170804 25 82 6.4 22.5 0.00 0.00 0.00 54 1017.5
20260505170703 25 145 8.0 22.5 0.00 0.00 0.00 53 1017.5
20260505170604 25 215 8.0 22.5 0.00 0.00 0.00 54 1017.6
20260505170506 25 142 6.4 22.5 0.00 0.00 0.00 53 1017.6
20260505170402 25 118 6.4 22.5 0.00 0.00 0.00 53 1017.7
20260505170304 25 178 8.0 22.5 0.00 0.00 0.00 54 1017.7
20260505170204 25 163 9.7 22.5 0.00 0.00 0.00 54 1017.6
20260505170006 25 207 9.7 24.1 0.00 0.00 0.00 53 1017.6
20260505165903 25 195 6.4 14.5 0.00 0.00 0.00 53 1017.6
20260505165603 26 182 8.0 14.5 0.00 0.00 0.00 52 1017.6
20260505165505 26 159 9.7 14.5 0.00 0.00 0.00 52 1017.6
20260505165403 26 182 8.0 14.5 0.00 0.00 0.00 53 1017.6
20260505165306 26 175 6.4 12.9 0.00 0.00 0.00 53 1017.6
20260505165203 25 144 6.4 14.5 0.00 0.00 0.00 55 1017.7
20260505164903 25 77 4.8 16.1 0.00 0.00 0.00 54 1017.7
20260505164804 25 84 4.8 16.1 0.00 0.00 0.00 56 1017.7
20260505164603 25 165 4.8 16.1 0.00 0.00 0.00 54 1017.7
20260505164505 25 117 6.4 16.1 0.00 0.00 0.00 54 1017.8
20260505164403 25 144 8.0 16.1 0.00 0.00 0.00 54 1017.8
20260505164303 25 128 8.0 16.1 0.00 0.00 0.00 56 1017.7
20260505164203 25 177 11.3 16.1 0.00 0.00 0.00 55 1017.6
20260505164103 25 248 11.3 16.1 0.00 0.00 0.00 54 1017.7
20260505164006 25 186 8.0 14.5 0.00 0.00 0.00 56 1017.8
20260505163903 25 171 8.0 12.9 0.00 0.00 0.00 55 1017.8
20260505163603 25 212 6.4 16.1 0.00 0.00 0.00 56 1017.8
20260505163505 25 175 6.4 16.1 0.00 0.00 0.00 57 1017.9
20260505163403 25 167 3.2 16.1 0.00 0.00 0.00 56 1017.9
20260505163304 25 163 3.2 16.1 0.00 0.00 0.00 56 1017.9
20260505163203 25 133 4.8 16.1 0.00 0.00 0.00 56 1017.9
20260505163104 25 200 9.7 16.1 0.00 0.00 0.00 55 1017.9
20260505163009 25 205 11.3 16.1 0.00 0.00 0.00 55 1017.9
20260505162905 25 196 8.0 17.7 0.00 0.00 0.00 57 1018.0
20260505162803 25 182 4.8 16.1 0.00 0.00 0.00 55 1017.9
20260505162703 25 92 6.4 16.1 0.00 0.00 0.00 56 1018.0
20260505162603 24 204 6.4 16.1 0.00 0.00 0.00 54 1018.0
20260505162506 25 191 8.0 16.1 0.00 0.00 0.00 54 1018.0
20260505162403 25 116 9.7 16.1 0.00 0.00 0.00 54 1018.0
20260505162306 25 207 6.4 14.5 0.00 0.00 0.00 55 1018.1
20260505162203 25 175 3.2 14.5 0.00 0.00 0.00 55 1018.0
20260505162103 25 92 3.2 11.3 0.00 0.00 0.00 56 1018.2
20260505162006 24 174 3.2 14.5 0.00 0.00 0.00 56 1018.2
20260505161803 24 78 6.4 14.5 0.00 0.00 0.00 54 1018.2
20260505161703 24 186 6.4 16.1 0.00 0.00 0.00 56 1018.3
20260505161603 24 169 6.4 16.1 0.00 0.00 0.00 55 1018.2
20260505161506 24 167 6.4 16.1 0.00 0.00 0.00 55 1018.2
20260505161403 24 219 6.4 16.1 0.00 0.00 0.00 57 1018.2
20260505161303 24 231 8.0 16.1 0.00 0.00 0.00 56 1018.3
20260505161203 24 155 8.0 16.1 0.00 0.00 0.00 56 1018.3
20260505161103 24 212 8.0 16.1 0.00 0.00 0.00 56 1018.3
20260505161006 24 177 9.7 16.1 0.00 0.00 0.00 56 1018.3
20260505160904 24 192 9.7 16.1 0.00 0.00 0.00 56 1018.3
20260505160803 24 191 6.4 16.1 0.00 0.00 0.00 57 1018.3
20260505160703 24 198 6.4 12.9 0.00 0.00 0.00 58 1018.2
20260505160403 24 266 4.8 12.9 0.00 0.00 0.00 58 1018.3
20260505160303 24 140 4.8 11.3 0.00 0.00 0.00 59 1018.2
20260505160204 24 117 4.8 11.3 0.00 0.00 0.00 61 1018.2
20260505153203 24 173 6.4 16.1 0.00 0.00 0.00 60 1018.3
20260505153103 24 148 9.7 16.1 0.00 0.00 0.00 60 1018.3
20260505153006 24 205 9.7 16.1 0.00 0.00 0.00 60 1018.4
20260505152903 24 200 9.7 16.1 0.00 0.00 0.00 61 1018.3
20260505152803 24 154 8.0 16.1 0.00 0.00 0.00 60 1018.3
20260505152703 23 144 4.8 16.1 0.00 0.00 0.00 61 1018.3
20260505152604 23 111 6.4 16.1 0.00 0.00 0.00 61 1018.3
20260505152506 23 103 8.0 16.1 0.00 0.00 0.00 63 1018.3
20260505152305 23 88 1.6 9.7 0.00 0.00 0.00 62 1018.3
20260505152204 23 162 1.6 9.7 0.00 0.00 0.00 63 1018.3
20260505151903 23 56 4.8 14.5 0.00 0.00 0.00 62 1018.3
20260505151803 23 221 3.2 14.5 0.00 0.00 0.00 62 1018.3
20260505151403 23 149 4.8 16.1 0.00 0.00 0.00 64 1018.4
20260505151203 23 173 6.4 16.1 0.00 0.00 0.00 65 1018.3
20260505151103 23 59 4.8 16.1 0.00 0.00 0.00 64 1018.3
20260505151006 23 204 3.2 16.1 0.00 0.00 0.00 66 1018.3
20260505150803 23 163 3.2 16.1 0.00 0.00 0.00 64 1018.3
20260505150703 23 78 6.4 16.1 0.00 0.00 0.00 63 1018.3
20260505150404 23 135 6.4 14.5 0.00 0.00 0.00 64 1018.4
20260505150302 23 150 4.8 14.5 0.00 0.00 0.00 65 1018.4
20260505150203 23 128 6.4 14.5 0.00 0.00 0.00 64 1018.4
20260505140604 21 153 6.4 11.3 0.00 0.00 0.00 72 1018.2
20260505140506 21 174 6.4 11.3 0.00 0.00 0.00 71 1018.2
20260505140403 21 178 3.2 11.3 0.00 0.00 0.00 71 1018.2
20260505140302 21 219 3.2 11.3 0.00 0.00 0.00 73 1018.2
20260505140203 21 246 4.8 11.3 0.00 0.00 0.00 74 1018.2
20260505130302 16 162 3.2 6.4 0.00 0.00 0.00 90 1017.9
20260505130203 16 176 3.2 4.8 0.00 0.00 0.00 90 1018.0
20260505125006 15 190 1.6 4.8 0.00 0.00 0.00 94 1018.1
20260505124803 15 178 3.2 4.8 0.00 0.00 0.00 95 1018.1
20260505124703 15 194 3.2 4.8 0.00 0.00 0.00 95 1018.0
20260505124604 15 166 1.6 4.8 0.00 0.00 0.00 95 1018.1
20260505124505 15 171 1.6 3.2 0.00 0.00 0.00 96 1018.1
20260505124402 15 157 1.6 3.2 0.00 0.00 0.00 96 1018.2
20260505124303 15 150 1.6 3.2 0.00 0.00 0.00 96 1018.1
20260505124204 15 167 1.6 4.8 0.00 0.00 0.00 96 1018.1
20260505124103 15 167 1.6 6.4 0.00 0.00 0.00 96 1018.1
20260505124005 15 167 1.6 6.4 0.00 0.00 0.00 97 1018.2
20260505123802 15 182 1.6 6.4 0.00 0.00 0.00 97 1018.1
20260505123403 14 194 1.6 6.4 0.00 0.00 0.00 97 1018.0
20260505123303 14 203 3.2 6.4 0.00 0.00 0.00 97 1018.1
20260505123202 14 218 3.2 6.4 0.00 0.00 0.00 97 1018.0
20260505122903 13 200 3.2 4.8 0.00 0.00 0.00 97 1018.0
20260505122804 13 199 1.6 4.8 0.00 0.00 0.00 97 1018.0
20260505122703 13 152 1.6 4.8 0.00 0.00 0.00 97 1018.1
20260505122603 13 172 1.6 3.2 0.00 0.00 0.00 97 1018.0
20260505122506 13 139 1.6 3.2 0.00 0.00 0.00 97 1018.0
20260505122403 13 137 1.6 3.2 0.00 0.00 0.00 97 1018.1
20260505122305 13 153 0.0 1.6 0.00 0.00 0.00 97 1018.0
20260505122202 13 153 0.0 1.6 0.00 0.00 0.00 97 1018.1
20260505121903 13 153 0.0 0.0 0.00 0.00 0.00 97 1018.1
20260505121803 13 153 0.0 0.0 0.00 0.00 0.00 97 1018.0
20260505121704 13 153 0.0 0.0 0.00 0.00 0.00 97 1018.1
20260505121603 13 153 0.0 0.0 0.00 0.00 0.00 97 1018.0
20260505121506 13 153 0.0 0.0 0.00 0.00 0.00 97 1018.1
20260505121303 12 153 0.0 0.0 0.00 0.00 0.00 97 1018.0
20260505121203 12 153 0.0 0.0 0.00 0.00 0.00 97 1018.0
20260505121103 12 153 0.0 0.0 0.00 0.00 0.00 97 1017.9
20260505121005 12 153 0.0 0.0 0.00 0.00 0.00 97 1018.0
20260505120904 12 153 0.0 0.0 0.00 0.00 0.00 97 1018.0
20260505120803 12 153 0.0 0.0 0.00 0.00 0.00 97 1017.9
20260505120702 12 153 0.0 0.0 0.00 0.00 0.00 97 1018.0
20260505120603 12 153 0.0 0.0 0.00 0.00 0.00 97 1018.0
20260505120506 12 153 0.0 0.0 0.00 0.00 0.00 97 1018.0
20260505120302 12 153 0.0 0.0 0.00 0.00 0.00 97 1017.9
20260505120202 12 153 0.0 0.0 0.00 0.00 0.00 97 1017.9
20260505115703 11 153 0.0 1.6 0.00 0.00 0.00 97 1018.0
20260505115602 11 153 0.0 1.6 0.00 0.00 0.00 97 1017.9
20260505115505 11 153 0.0 1.6 0.00 0.00 0.00 97 1017.9
20260505114903 11 153 0.0 1.6 0.00 0.00 0.00 97 1017.9
20260505114803 11 153 0.0 1.6 0.00 0.00 0.00 97 1017.9
20260505114603 11 153 0.0 1.6 0.00 0.00 0.00 96 1017.9
20260505114505 11 153 0.0 1.6 0.00 0.00 0.00 96 1017.9
20260505114403 11 153 0.0 1.6 0.00 0.00 0.00 96 1017.9
20260505114304 11 153 0.0 1.6 0.00 0.00 0.00 96 1017.9
20260505114203 11 153 0.0 1.6 0.00 0.00 0.00 96 1017.9
20260505114005 11 153 0.0 1.6 0.00 0.00 0.00 96 1017.8
20260505113803 11 303 0.0 1.6 0.00 0.00 0.00 96 1017.8
20260505113704 11 302 0.0 1.6 0.00 0.00 0.00 96 1017.8
20260505113602 11 292 0.0 1.6 0.00 0.00 0.00 96 1017.8
20260505113506 11 330 0.0 0.0 0.00 0.00 0.00 96 1017.8
20260505113203 11 330 0.0 0.0 0.00 0.00 0.00 96 1017.8
20260505113103 11 330 0.0 0.0 0.00 0.00 0.00 96 1017.8
20260505113006 11 330 0.0 0.0 0.00 0.00 0.00 96 1017.8
20260505112902 10 330 0.0 0.0 0.00 0.00 0.00 96 1017.7
20260505112802 10 330 0.0 0.0 0.00 0.00 0.00 96 1017.7
20260505112703 10 330 0.0 0.0 0.00 0.00 0.00 96 1017.7
20260505112603 10 330 0.0 0.0 0.00 0.00 0.00 96 1017.8
20260505112505 10 330 0.0 1.6 0.00 0.00 0.00 96 1017.7
20260505112304 10 330 0.0 1.6 0.00 0.00 0.00 96 1017.7
20260505112203 10 330 0.0 1.6 0.00 0.00 0.00 96 1017.7
20260505112103 10 330 0.0 1.6 0.00 0.00 0.00 96 1017.7
20260505112006 10 330 0.0 1.6 0.00 0.00 0.00 96 1017.7
20260505111903 10 257 0.0 1.6 0.00 0.00 0.00 96 1017.7
20260505111804 10 257 0.0 1.6 0.00 0.00 0.00 96 1017.6
20260505111704 10 257 0.0 1.6 0.00 0.00 0.00 96 1017.6
20260505111602 10 242 0.0 0.0 0.00 0.00 0.00 96 1017.6
20260505111505 10 240 0.0 0.0 0.00 0.00 0.00 96 1017.7
20260505111403 10 240 0.0 0.0 0.00 0.00 0.00 96 1017.6
20260505111303 10 240 0.0 0.0 0.00 0.00 0.00 96 1017.6
20260505111203 10 240 0.0 0.0 0.00 0.00 0.00 96 1017.7
20260505110903 10 240 0.0 0.0 0.00 0.00 0.00 95 1017.6
20260505110802 10 240 0.0 0.0 0.00 0.00 0.00 95 1017.5
20260505110704 10 240 0.0 0.0 0.00 0.00 0.00 95 1017.5
20260505110604 10 240 0.0 0.0 0.00 0.00 0.00 95 1017.6
20260505110508 10 240 0.0 0.0 0.00 0.00 0.00 95 1017.5
20260505110403 10 240 0.0 1.6 0.00 0.00 0.00 95 1017.4
20260505110302 10 240 0.0 1.6 0.00 0.00 0.00 95 1017.5
20260505110203 10 240 0.0 1.6 0.00 0.00 0.00 95 1017.4
20260505102202 10 199 0.0 0.0 0.00 0.00 0.00 95 1016.9
20260505102101 10 199 0.0 0.0 0.00 0.00 0.00 95 1016.9
20260505102006 10 199 0.0 0.0 0.00 0.00 0.00 95 1016.9
20260505101905 10 199 0.0 0.0 0.00 0.00 0.00 95 1016.9
20260505101803 10 199 0.0 0.0 0.00 0.00 0.00 95 1016.8
20260505101702 10 199 0.0 0.0 0.00 0.00 0.00 95 1016.8
20260505101603 10 199 0.0 0.0 0.00 0.00 0.00 95 1016.8
20260505101505 10 199 0.0 0.0 0.00 0.00 0.00 95 1016.7
20260505101301 10 199 0.0 0.0 0.00 0.00 0.00 95 1016.8
20260505101202 10 199 0.0 0.0 0.00 0.00 0.00 95 1016.8
20260505101102 10 199 0.0 0.0 0.00 0.00 0.00 95 1016.8
20260505101006 10 199 0.0 0.0 0.00 0.00 0.00 95 1016.8
20260505100902 10 199 0.0 0.0 0.00 0.00 0.00 95 1016.8
20260505100803 10 199 0.0 0.0 0.00 0.00 0.00 95 1016.8
20260505100601 10 199 0.0 0.0 0.00 0.00 0.00 95 1016.8
20260505100504 10 199 0.0 0.0 0.00 0.00 0.00 95 1016.8
20260505100401 10 199 0.0 0.0 0.00 0.00 0.00 95 1016.8
20260505100302 10 199 0.0 0.0 0.00 0.00 0.00 95 1016.8
20260505100202 10 199 0.0 0.0 0.00 0.00 0.00 95 1016.7
20260505095904 10 199 0.0 0.0 0.00 0.00 0.00 95 1016.8
20260505095802 10 199 0.0 0.0 0.00 0.00 0.00 95 1016.7
20260505095704 10 199 0.0 0.0 0.00 0.00 0.00 95 1016.8
20260505095603 10 199 0.0 0.0 0.00 0.00 0.00 95 1016.7
20260505095506 10 199 0.0 0.0 0.00 0.00 0.00 95 1016.7
20260505095304 10 199 0.0 0.0 0.00 0.00 0.00 95 1016.7
20260505095203 10 199 0.0 0.0 0.00 0.00 0.00 95 1016.7
20260505095103 10 199 0.0 0.0 0.00 0.00 0.00 95 1016.7
20260505095005 10 199 0.0 0.0 0.00 0.00 0.00 95 1016.7
20260505094904 10 199 0.0 0.0 0.00 0.00 0.00 95 1016.7
20260505094802 10 199 0.0 0.0 0.00 0.00 0.00 95 1016.7
20260505094703 11 199 0.0 0.0 0.00 0.00 0.00 95 1016.7
20260505094302 11 199 0.0 0.0 0.00 0.00 0.00 94 1016.7
20260505094203 11 199 0.0 0.0 0.00 0.00 0.00 94 1016.7
20260505094104 11 199 0.0 0.0 0.00 0.00 0.00 94 1016.7
20260505094005 11 199 0.0 0.0 0.00 0.00 0.00 94 1016.8
20260505093903 11 199 0.0 0.0 0.00 0.00 0.00 94 1016.7
20260505093603 11 199 0.0 0.0 0.00 0.00 0.00 94 1016.6
20260505093505 11 199 0.0 0.0 0.00 0.00 0.00 94 1016.7
20260505093404 11 199 0.0 0.0 0.00 0.00 0.00 94 1016.7
20260505093302 11 199 0.0 0.0 0.00 0.00 0.00 94 1016.7
20260505093203 11 199 0.0 0.0 0.00 0.00 0.00 94 1016.7
20260505093103 11 199 0.0 0.0 0.00 0.00 0.00 94 1016.6
20260505093006 11 199 0.0 0.0 0.00 0.00 0.00 94 1016.7
20260505092904 11 199 0.0 0.0 0.00 0.00 0.00 94 1016.7
20260505092803 11 199 0.0 0.0 0.00 0.00 0.00 95 1016.7
20260505092703 11 199 0.0 0.0 0.00 0.00 0.00 95 1016.7
20260505092602 11 199 0.0 0.0 0.00 0.00 0.00 95 1016.7
20260505092505 11 199 0.0 0.0 0.00 0.00 0.00 95 1016.7
20260505092403 11 199 0.0 0.0 0.00 0.00 0.00 95 1016.6
20260505092305 11 199 0.0 0.0 0.00 0.00 0.00 95 1016.6
20260505092203 11 199 0.0 0.0 0.00 0.00 0.00 95 1016.7
20260505092103 11 199 0.0 0.0 0.00 0.00 0.00 95 1016.7
20260505092006 11 199 0.0 0.0 0.00 0.00 0.00 95 1016.7
20260505091902 11 199 0.0 0.0 0.00 0.00 0.00 95 1016.7
20260505091804 11 199 0.0 0.0 0.00 0.00 0.00 95 1016.7
20260505091703 11 199 0.0 0.0 0.00 0.00 0.00 94 1016.6
20260505091604 11 199 0.0 0.0 0.00 0.00 0.00 94 1016.6
20260505091505 11 199 0.0 0.0 0.00 0.00 0.00 94 1016.7
20260505091404 11 199 0.0 0.0 0.00 0.00 0.00 94 1016.6
20260505091302 11 199 0.0 0.0 0.00 0.00 0.00 94 1016.7
20260505091203 11 199 0.0 0.0 0.00 0.00 0.00 94 1016.7
20260505091103 11 199 0.0 0.0 0.00 0.00 0.00 94 1016.6
20260505091006 11 199 0.0 0.0 0.00 0.00 0.00 94 1016.7
20260505090803 11 199 0.0 0.0 0.00 0.00 0.00 94 1016.7
20260505090603 11 199 0.0 0.0 0.00 0.00 0.00 94 1016.6
20260505090506 11 199 0.0 0.0 0.00 0.00 0.00 94 1016.7
20260505090403 11 199 0.0 0.0 0.00 0.00 0.00 94 1016.7
20260505090302 11 199 0.0 0.0 0.00 0.00 0.00 94 1016.6
20260505090203 11 199 0.0 0.0 0.00 0.00 0.00 94 1016.7
20260505090006 11 199 0.0 0.0 0.00 0.00 0.00 94 1016.6
20260505085602 11 199 0.0 0.0 0.00 0.00 0.00 94 1016.5
20260505085505 11 199 0.0 0.0 0.00 0.00 0.00 94 1016.6
20260505085201 11 199 0.0 0.0 0.00 0.00 0.00 94 1016.6
20260505085101 11 199 0.0 0.0 0.00 0.00 0.00 95 1016.5
20260505085005 11 199 0.0 0.0 0.00 0.00 0.00 94 1016.5
20260505084902 11 199 0.0 0.0 0.00 0.00 0.00 94 1016.5
20260505084802 11 199 0.0 0.0 0.00 0.00 0.00 94 1016.5
20260505084702 11 199 0.0 0.0 0.00 0.00 0.00 94 1016.5
20260505084602 11 199 0.0 0.0 0.00 0.00 0.00 95 1016.5
20260505084506 11 199 0.0 0.0 0.00 0.00 0.00 94 1016.5
20260505084402 11 199 0.0 0.0 0.00 0.00 0.00 95 1016.5
20260505084303 11 199 0.0 0.0 0.00 0.00 0.00 94 1016.5
20260505084202 11 199 0.0 0.0 0.00 0.00 0.00 94 1016.5
20260505083901 11 199 0.0 0.0 0.00 0.00 0.00 94 1016.5
20260505083802 11 199 0.0 0.0 0.00 0.00 0.00 94 1016.5
20260505083703 11 199 0.0 0.0 0.00 0.00 0.00 94 1016.5
20260505083602 11 199 0.0 0.0 0.00 0.00 0.00 94 1016.5
20260505083505 11 199 0.0 0.0 0.00 0.00 0.00 94 1016.5
20260505083403 11 199 0.0 0.0 0.00 0.00 0.00 94 1016.5
20260505083302 11 199 0.0 0.0 0.00 0.00 0.00 94 1016.5
20260505083202 11 199 0.0 0.0 0.00 0.00 0.00 94 1016.4
20260505083102 11 199 0.0 0.0 0.00 0.00 0.00 94 1016.5
20260505083006 11 199 0.0 0.0 0.00 0.00 0.00 94 1016.5
20260505082902 11 199 0.0 0.0 0.00 0.00 0.00 94 1016.4
20260505082801 11 199 0.0 0.0 0.00 0.00 0.00 94 1016.4
20260505082703 11 199 0.0 0.0 0.00 0.00 0.00 94 1016.4
20260505082602 11 199 0.0 0.0 0.00 0.00 0.00 94 1016.4
20260505082505 11 199 0.0 0.0 0.00 0.00 0.00 94 1016.4
20260505082402 11 199 0.0 0.0 0.00 0.00 0.00 94 1016.4
20260505082101 11 199 0.0 0.0 0.00 0.00 0.00 94 1016.3
20260505082005 11 199 0.0 0.0 0.00 0.00 0.00 94 1016.3
20260505081901 11 199 0.0 0.0 0.00 0.00 0.00 94 1016.3
20260505081804 11 199 0.0 0.0 0.00 0.00 0.00 94 1016.3
20260505081702 11 199 0.0 0.0 0.00 0.00 0.00 94 1016.2
20260505081602 11 199 0.0 0.0 0.00 0.00 0.00 94 1016.2
20260505081505 11 199 0.0 0.0 0.00 0.00 0.00 94 1016.2
20260505081402 11 199 0.0 0.0 0.00 0.00 0.00 94 1016.3
20260505081201 11 199 0.0 0.0 0.00 0.00 0.00 94 1016.3
20260505081101 11 199 0.0 0.0 0.00 0.00 0.00 94 1016.3
20260505081005 11 199 0.0 0.0 0.00 0.00 0.00 94 1016.3
20260505080802 11 199 0.0 0.0 0.00 0.00 0.00 94 1016.2
20260505080703 11 199 0.0 0.0 0.00 0.00 0.00 94 1016.2
20260505080601 11 199 0.0 0.0 0.00 0.00 0.00 94 1016.3
20260505080505 11 199 0.0 0.0 0.00 0.00 0.00 94 1016.3
20260505080402 11 199 0.0 0.0 0.00 0.00 0.00 94 1016.3
20260505080301 11 199 0.0 0.0 0.00 0.00 0.00 94 1016.2
20260505080202 11 199 0.0 0.0 0.00 0.00 0.00 94 1016.2
20260505080005 11 199 0.0 0.0 0.00 0.00 0.00 94 1016.2
20260505075901 11 199 0.0 0.0 0.00 0.00 0.00 94 1016.2
20260505075802 11 199 0.0 0.0 0.00 0.00 0.00 93 1016.2
20260505075701 11 199 0.0 0.0 0.00 0.00 0.00 93 1016.2
20260505075601 11 199 0.0 0.0 0.00 0.00 0.00 93 1016.2
20260505075505 11 199 0.0 0.0 0.00 0.00 0.00 93 1016.3
20260505075304 11 199 0.0 0.0 0.00 0.00 0.00 93 1016.2
20260505075202 11 199 0.0 0.0 0.00 0.00 0.00 93 1016.3
20260505075102 11 199 0.0 0.0 0.00 0.00 0.00 93 1016.3
20260505075006 11 199 0.0 0.0 0.00 0.00 0.00 93 1016.3
20260505074902 11 199 0.0 0.0 0.00 0.00 0.00 93 1016.3
20260505074801 11 199 0.0 0.0 0.00 0.00 0.00 93 1016.2
20260505074702 11 199 0.0 0.0 0.00 0.00 0.00 93 1016.2
20260505074601 11 199 0.0 0.0 0.00 0.00 0.00 93 1016.2
20260505074505 11 199 0.0 0.0 0.00 0.00 0.00 93 1016.2
20260505074402 11 199 0.0 0.0 0.00 0.00 0.00 93 1016.2
20260505074301 12 199 0.0 0.0 0.00 0.00 0.00 93 1016.2
20260505074202 11 199 0.0 0.0 0.00 0.00 0.00 93 1016.3
20260505074102 11 199 0.0 0.0 0.00 0.00 0.00 93 1016.2
20260505074006 12 199 0.0 0.0 0.00 0.00 0.00 93 1016.3
20260505073901 12 199 0.0 0.0 0.00 0.00 0.00 93 1016.2
20260505073802 12 199 0.0 0.0 0.00 0.00 0.00 93 1016.2
20260505073701 12 199 0.0 0.0 0.00 0.00 0.00 93 1016.3
20260505073602 12 199 0.0 0.0 0.00 0.00 0.00 93 1016.3
20260505073505 12 199 0.0 0.0 0.00 0.00 0.00 93 1016.3
20260505073402 12 199 0.0 0.0 0.00 0.00 0.00 93 1016.3
20260505073302 12 199 0.0 0.0 0.00 0.00 0.00 93 1016.3
20260505073201 12 199 0.0 0.0 0.00 0.00 0.00 93 1016.3
20260505072602 12 199 0.0 0.0 0.00 0.00 0.00 93 1016.3
20260505072506 12 199 0.0 0.0 0.00 0.00 0.00 93 1016.3
20260505072402 12 199 0.0 0.0 0.00 0.00 0.00 93 1016.3
20260505072301 12 199 0.0 0.0 0.00 0.00 0.00 93 1016.4
20260505072202 12 199 0.0 0.0 0.00 0.00 0.00 93 1016.3
20260505072101 12 199 0.0 0.0 0.00 0.00 0.00 93 1016.4
20260505072005 12 199 0.0 0.0 0.00 0.00 0.00 93 1016.3
20260505071801 12 199 0.0 0.0 0.00 0.00 0.00 93 1016.3
20260505071701 12 199 0.0 0.0 0.00 0.00 0.00 93 1016.3
20260505071602 12 199 0.0 0.0 0.00 0.00 0.00 93 1016.2
20260505071505 12 199 0.0 0.0 0.00 0.00 0.00 93 1016.3
20260505071401 12 199 0.0 0.0 0.00 0.00 0.00 93 1016.3
20260505071202 12 199 0.0 0.0 0.00 0.00 0.00 93 1016.1
20260505071101 12 199 0.0 0.0 0.00 0.00 0.00 93 1016.2
20260505071005 12 199 0.0 0.0 0.00 0.00 0.00 93 1016.2
20260505070901 12 199 0.0 0.0 0.00 0.00 0.00 93 1016.2
20260505070802 12 199 0.0 0.0 0.00 0.00 0.00 93 1016.2
20260505070702 12 199 0.0 0.0 0.00 0.00 0.00 93 1016.2
20260505070602 12 199 0.0 0.0 0.00 0.00 0.00 93 1016.2
20260505070505 12 199 0.0 0.0 0.00 0.00 0.00 92 1016.3
20260505070402 12 199 0.0 0.0 0.00 0.00 0.00 92 1016.2
20260505070303 12 199 0.0 0.0 0.00 0.00 0.00 93 1016.2
20260505070201 12 199 0.0 0.0 0.00 0.00 0.00 92 1016.2
20260505070005 12 199 0.0 0.0 0.00 0.00 0.00 92 1016.2
20260505065902 12 199 0.0 0.0 0.00 0.00 0.00 92 1016.2
20260505065803 12 199 0.0 0.0 0.00 0.00 0.00 92 1016.2
20260505065602 12 199 0.0 0.0 0.00 0.00 0.00 92 1016.3
20260505065505 12 199 0.0 0.0 0.00 0.00 0.00 92 1016.2
20260505065403 12 199 0.0 0.0 0.00 0.00 0.00 92 1016.2
20260505065202 12 199 0.0 0.0 0.00 0.00 0.00 92 1016.2
20260505065101 12 199 0.0 0.0 0.00 0.00 0.00 92 1016.3
20260505065005 12 199 0.0 0.0 0.00 0.00 0.00 92 1016.3
20260505064901 12 199 0.0 0.0 0.00 0.00 0.00 92 1016.2
20260505064801 12 199 0.0 0.0 0.00 0.00 0.00 92 1016.3
20260505064702 12 199 0.0 0.0 0.00 0.00 0.00 92 1016.3
20260505064603 12 199 0.0 0.0 0.00 0.00 0.00 92 1016.3
20260505064506 12 199 0.0 0.0 0.00 0.00 0.00 92 1016.3
20260505064402 12 199 0.0 0.0 0.00 0.00 0.00 92 1016.3
20260505064303 12 199 0.0 0.0 0.00 0.00 0.00 92 1016.3
20260505064203 12 199 0.0 0.0 0.00 0.00 0.00 92 1016.3
20260505064102 12 199 0.0 0.0 0.00 0.00 0.00 92 1016.3
20260505064005 12 199 0.0 0.0 0.00 0.00 0.00 92 1016.3
20260505063902 12 199 0.0 0.0 0.00 0.00 0.00 92 1016.5
20260505063603 12 199 0.0 0.0 0.00 0.00 0.00 91 1016.3
20260505063505 12 199 0.0 0.0 0.00 0.00 0.00 91 1016.4
20260505063403 12 199 0.0 0.0 0.00 0.00 0.00 91 1016.4
20260505063302 12 199 0.0 0.0 0.00 0.00 0.00 92 1016.4
20260505063203 12 199 0.0 0.0 0.00 0.00 0.00 91 1016.4
20260505062803 12 199 0.0 0.0 0.00 0.00 0.00 91 1016.5
20260505062702 12 199 0.0 0.0 0.00 0.00 0.00 91 1016.5
20260505062602 12 199 0.0 0.0 0.00 0.00 0.00 91 1016.6
20260505062506 12 199 0.0 0.0 0.00 0.00 0.00 91 1016.7
20260505062401 12 199 0.0 0.0 0.00 0.00 0.00 91 1016.6
20260505062304 12 199 0.0 0.0 0.00 0.00 0.00 91 1016.7
20260505062202 12 199 0.0 0.0 0.00 0.00 0.00 91 1016.7
20260505062101 12 199 0.0 0.0 0.00 0.00 0.00 91 1016.7
20260505062006 12 199 0.0 0.0 0.00 0.00 0.00 91 1016.7
20260505061902 12 199 0.0 0.0 0.00 0.00 0.00 91 1016.8
20260505061802 12 199 0.0 0.0 0.00 0.00 0.00 91 1016.8
20260505061702 12 199 0.0 0.0 0.00 0.00 0.00 91 1016.7
20260505061601 12 199 0.0 0.0 0.00 0.00 0.00 91 1016.7
20260505061505 12 199 0.0 0.0 0.00 0.00 0.00 90 1016.7
20260505061401 12 199 0.0 0.0 0.00 0.00 0.00 90 1016.7
20260505061303 12 199 0.0 0.0 0.00 0.00 0.00 90 1016.7
20260505061202 12 199 0.0 0.0 0.00 0.00 0.00 90 1016.8
20260505061102 12 199 0.0 0.0 0.00 0.00 0.00 90 1016.8
20260505061005 12 199 0.0 0.0 0.00 0.00 0.00 90 1016.8
20260505060902 12 199 0.0 0.0 0.00 0.00 0.00 90 1016.8
20260505060802 12 199 0.0 0.0 0.00 0.00 0.00 90 1016.8
20260505060702 12 199 0.0 0.0 0.00 0.00 0.00 90 1016.8
20260505060603 12 199 0.0 0.0 0.00 0.00 0.00 90 1016.8
20260505060505 12 199 0.0 0.0 0.00 0.00 0.00 90 1016.9
20260505060402 12 199 0.0 0.0 0.00 0.00 0.00 90 1016.9
20260505060302 12 199 0.0 0.0 0.00 0.00 0.00 89 1016.9
20260505060202 12 199 0.0 0.0 0.00 0.00 0.00 90 1016.9
20260505060103 12 199 0.0 0.0 0.00 0.00 0.00 90 1016.8
20260505060007 12 199 0.0 0.0 0.00 0.00 0.00 90 1016.8
20260505055902 12 199 0.0 0.0 0.00 0.00 0.00 90 1016.8
20260505055801 12 199 0.0 0.0 0.00 0.00 0.00 90 1016.9
20260505055701 12 199 0.0 0.0 0.00 0.00 0.00 90 1016.9
20260505055602 12 199 0.0 0.0 0.00 0.00 0.00 90 1016.8
20260505055506 12 199 0.0 0.0 0.00 0.00 0.00 90 1016.9
20260505055402 12 199 0.0 0.0 0.00 0.00 0.00 89 1016.9
20260505055303 12 199 0.0 0.0 0.00 0.00 0.00 89 1017.0
20260505055102 12 199 0.0 0.0 0.00 0.00 0.00 89 1016.9
20260505055005 12 199 0.0 0.0 0.00 0.00 0.00 89 1017.0
20260505054602 12 199 0.0 0.0 0.00 0.00 0.00 88 1017.1
20260505054505 12 199 0.0 0.0 0.00 0.00 0.00 88 1017.0
20260505054402 12 199 0.0 0.0 0.00 0.00 0.00 88 1017.0
20260505054303 12 199 0.0 0.0 0.00 0.00 0.00 88 1017.1
20260505054203 12 199 0.0 0.0 0.00 0.00 0.00 89 1017.1
20260505054102 12 199 0.0 0.0 0.00 0.00 0.00 89 1017.1
20260505054005 12 199 0.0 0.0 0.00 0.00 0.00 88 1017.1
20260505053901 12 199 0.0 0.0 0.00 0.00 0.00 88 1017.1
20260505053803 12 199 0.0 0.0 0.00 0.00 0.00 88 1017.0
20260505053702 12 199 0.0 0.0 0.00 0.00 0.00 88 1017.2
20260505053602 12 199 0.0 0.0 0.00 0.00 0.00 88 1017.0
20260505053505 12 199 0.0 0.0 0.00 0.00 0.00 88 1017.2
20260505053401 12 199 0.0 0.0 0.00 0.00 0.00 88 1017.1
20260505053302 12 199 0.0 0.0 0.00 0.00 0.00 88 1017.1
20260505053102 12 199 0.0 0.0 0.00 0.00 0.00 88 1017.1
20260505053006 12 199 0.0 0.0 0.00 0.00 0.00 88 1017.2
20260505052904 12 199 0.0 0.0 0.00 0.00 0.00 87 1017.2
20260505052702 12 199 0.0 0.0 0.00 0.00 0.00 88 1017.2
20260505052605 12 199 0.0 0.0 0.00 0.00 0.00 87 1017.2
20260505052505 12 199 0.0 0.0 0.00 0.00 0.00 87 1017.3
20260505052403 12 199 0.0 0.0 0.00 0.00 0.00 87 1017.3
20260505052304 12 199 0.0 0.0 0.00 0.00 0.00 87 1017.3
20260505052102 12 199 0.0 0.0 0.00 0.00 0.00 87 1017.3
20260505052005 13 199 0.0 0.0 0.00 0.00 0.00 87 1017.3
20260505051902 13 199 0.0 0.0 0.00 0.00 0.00 87 1017.3
20260505051803 12 199 0.0 0.0 0.00 0.00 0.00 87 1017.4
20260505051702 13 199 0.0 0.0 0.00 0.00 0.00 87 1017.4
20260505051601 13 199 0.0 0.0 0.00 0.00 0.00 86 1017.4
20260505051506 13 199 0.0 0.0 0.00 0.00 0.00 87 1017.3
20260505051302 13 199 0.0 0.0 0.00 0.00 0.00 86 1017.4
20260505051202 13 199 0.0 0.0 0.00 0.00 0.00 86 1017.3
20260505051103 13 199 0.0 0.0 0.00 0.00 0.00 86 1017.5
20260505051006 13 199 0.0 0.0 0.00 0.00 0.00 86 1017.4
20260505050902 13 199 0.0 0.0 0.00 0.00 0.00 86 1017.4
20260505050802 13 199 0.0 0.0 0.00 0.00 0.00 86 1017.4
20260505050701 13 199 0.0 0.0 0.00 0.00 0.00 86 1017.4
20260505050601 13 199 0.0 0.0 0.00 0.00 0.00 86 1017.4
20260505050505 13 199 0.0 0.0 0.00 0.00 0.00 86 1017.4
20260505050402 13 199 0.0 0.0 0.00 0.00 0.00 86 1017.5
20260505050301 13 199 0.0 0.0 0.00 0.00 0.00 86 1017.4
20260505050201 13 199 0.0 0.0 0.00 0.00 0.00 86 1017.4
20260505041304 13 199 0.0 4.8 0.00 0.00 0.00 83 1017.4
20260505041204 13 199 0.0 4.8 0.00 0.00 0.00 83 1017.4
20260505040904 13 199 1.6 4.8 0.00 0.00 0.00 83 1017.4
20260505040803 13 199 1.6 4.8 0.00 0.00 0.00 83 1017.5
20260505040705 13 199 1.6 4.8 0.00 0.00 0.00 83 1017.5
20260505040604 13 199 1.6 4.8 0.00 0.00 0.00 83 1017.5
20260505040506 13 199 1.6 4.8 0.00 0.00 0.00 83 1017.5
20260505040304 13 202 1.6 3.2 0.00 0.00 0.00 82 1017.5
20260505040207 13 202 1.6 3.2 0.00 0.00 0.00 82 1017.5
20260505040104 13 200 0.0 3.2 0.00 0.00 0.00 82 1017.5
20260505040011 13 200 1.6 3.2 0.00 0.00 0.00 82 1017.5
20260505035906 13 200 0.0 3.2 0.00 0.00 0.00 82 1017.5
20260505035805 13 194 1.6 3.2 0.00 0.00 0.00 82 1017.5
20260505035705 13 194 1.6 3.2 0.00 0.00 0.00 82 1017.5
20260505035605 13 201 0.0 3.2 0.00 0.00 0.00 82 1017.4
20260505035506 14 201 0.0 3.2 0.00 0.00 0.00 82 1017.5
20260505035404 13 201 0.0 3.2 0.00 0.00 0.00 82 1017.5
20260505035305 14 201 0.0 3.2 0.00 0.00 0.00 82 1017.6
20260505035205 14 201 1.6 3.2 0.00 0.00 0.00 82 1017.5
20260505035106 14 201 1.6 3.2 0.00 0.00 0.00 82 1017.6
20260505035006 14 201 1.6 3.2 0.00 0.00 0.00 82 1017.5
20260505034805 14 206 1.6 3.2 0.00 0.00 0.00 82 1017.5
20260505034705 14 198 0.0 3.2 0.00 0.00 0.00 82 1017.5
20260505034405 14 198 0.0 3.2 0.00 0.00 0.00 81 1017.4
20260505034304 14 198 1.6 3.2 0.00 0.00 0.00 81 1017.5
20260505034206 14 198 1.6 3.2 0.00 0.00 0.00 81 1017.5
20260505034106 14 198 0.0 3.2 0.00 0.00 0.00 81 1017.5
20260505034006 14 198 0.0 3.2 0.00 0.00 0.00 81 1017.4
20260505033905 14 205 0.0 1.6 0.00 0.00 0.00 81 1017.4
20260505033805 14 205 0.0 1.6 0.00 0.00 0.00 81 1017.5
20260505033705 14 205 0.0 1.6 0.00 0.00 0.00 81 1017.4
20260505033404 14 205 0.0 1.6 0.00 0.00 0.00 80 1017.5
20260505033305 14 205 0.0 1.6 0.00 0.00 0.00 80 1017.5
20260505033205 14 205 0.0 1.6 0.00 0.00 0.00 80 1017.5
20260505033106 14 205 0.0 0.0 0.00 0.00 0.00 80 1017.5
20260505033007 14 205 0.0 0.0 0.00 0.00 0.00 80 1017.4
20260505032905 14 205 0.0 0.0 0.00 0.00 0.00 80 1017.5
20260505032805 14 205 0.0 0.0 0.00 0.00 0.00 80 1017.4
20260505032706 14 205 0.0 0.0 0.00 0.00 0.00 80 1017.4
20260505032604 14 205 0.0 0.0 0.00 0.00 0.00 80 1017.5
20260505032305 14 205 0.0 0.0 0.00 0.00 0.00 79 1017.4
20260505032205 15 205 0.0 0.0 0.00 0.00 0.00 79 1017.5
20260505031906 15 205 0.0 0.0 0.00 0.00 0.00 79 1017.4
20260505031808 15 205 0.0 0.0 0.00 0.00 0.00 78 1017.5
20260505031706 15 205 0.0 0.0 0.00 0.00 0.00 78 1017.5
20260505031404 15 205 0.0 0.0 0.00 0.00 0.00 78 1017.5
20260505031305 15 205 0.0 0.0 0.00 0.00 0.00 77 1017.5
20260505031205 15 205 0.0 0.0 0.00 0.00 0.00 77 1017.4
20260505031104 15 205 0.0 0.0 0.00 0.00 0.00 77 1017.5
20260505031006 15 205 0.0 0.0 0.00 0.00 0.00 77 1017.4
20260505030905 15 205 0.0 0.0 0.00 0.00 0.00 77 1017.5
20260505030808 15 205 0.0 0.0 0.00 0.00 0.00 77 1017.4
20260505030706 15 205 0.0 0.0 0.00 0.00 0.00 77 1017.4
20260505030605 15 205 0.0 0.0 0.00 0.00 0.00 76 1017.4
20260505030507 15 205 0.0 0.0 0.00 0.00 0.00 76 1017.4
20260505030405 15 205 0.0 0.0 0.00 0.00 0.00 76 1017.4
20260505030305 15 205 0.0 0.0 0.00 0.00 0.00 76 1017.4
20260505030206 15 205 0.0 0.0 0.00 0.00 0.00 76 1017.5
20260505025904 15 205 0.0 0.0 0.00 0.00 0.00 75 1017.4
20260505025804 15 205 0.0 0.0 0.00 0.00 0.00 75 1017.5
20260505025704 15 205 0.0 0.0 0.00 0.00 0.00 75 1017.4
20260505025604 15 205 0.0 0.0 0.00 0.00 0.00 75 1017.4
20260505025506 15 205 0.0 0.0 0.00 0.00 0.00 74 1017.5
20260505025403 15 205 0.0 0.0 0.00 0.00 0.00 74 1017.5
20260505025305 15 205 0.0 0.0 0.00 0.00 0.00 74 1017.5
20260505025205 15 205 0.0 0.0 0.00 0.00 0.00 74 1017.5
20260505025104 15 205 0.0 0.0 0.00 0.00 0.00 74 1017.5
20260505025006 15 205 0.0 0.0 0.00 0.00 0.00 74 1017.5
20260505024904 15 205 0.0 0.0 0.00 0.00 0.00 74 1017.5
20260505024803 15 205 0.0 0.0 0.00 0.00 0.00 73 1017.5
20260505024704 15 205 0.0 0.0 0.00 0.00 0.00 73 1017.5
20260505024604 15 205 0.0 0.0 0.00 0.00 0.00 73 1017.5
20260505024506 15 205 0.0 0.0 0.00 0.00 0.00 73 1017.4
20260505024404 16 205 0.0 0.0 0.00 0.00 0.00 74 1017.5
20260505024304 16 205 0.0 1.6 0.00 0.00 0.00 74 1017.4
20260505024205 16 205 0.0 1.6 0.00 0.00 0.00 73 1017.4
20260505024104 16 205 0.0 1.6 0.00 0.00 0.00 73 1017.4
20260505024006 16 205 0.0 1.6 0.00 0.00 0.00 72 1017.4
20260505023904 16 205 0.0 1.6 0.00 0.00 0.00 72 1017.4
20260505023805 16 205 0.0 1.6 0.00 0.00 0.00 72 1017.3
20260505023404 16 205 0.0 1.6 0.00 0.00 0.00 72 1017.3
20260505023204 16 205 0.0 1.6 0.00 0.00 0.00 72 1017.3
20260505023104 16 205 0.0 1.6 0.00 0.00 0.00 72 1017.3
20260505023006 16 205 0.0 1.6 0.00 0.00 0.00 72 1017.3
20260505022904 16 205 0.0 1.6 0.00 0.00 0.00 71 1017.2
20260505022805 16 205 0.0 1.6 0.00 0.00 0.00 71 1017.3
20260505022704 16 205 0.0 1.6 0.00 0.00 0.00 70 1017.3
20260505022604 16 205 0.0 1.6 0.00 0.00 0.00 70 1017.2
20260505022506 16 205 0.0 1.6 0.00 0.00 0.00 70 1017.3
20260505022205 16 205 0.0 1.6 0.00 0.00 0.00 70 1017.3
20260505022103 16 205 0.0 1.6 0.00 0.00 0.00 69 1017.3
20260505022008 16 205 0.0 1.6 0.00 0.00 0.00 70 1017.3
20260505021904 16 205 0.0 3.2 0.00 0.00 0.00 69 1017.4
20260505021803 16 205 0.0 3.2 0.00 0.00 0.00 69 1017.3
20260505021704 16 205 0.0 3.2 0.00 0.00 0.00 69 1017.4
20260505021604 16 205 0.0 3.2 0.00 0.00 0.00 69 1017.3
20260505021505 16 205 0.0 3.2 0.00 0.00 0.00 69 1017.3
20260505021404 16 205 0.0 3.2 0.00 0.00 0.00 68 1017.3
20260505021304 16 205 0.0 3.2 0.00 0.00 0.00 68 1017.3
20260505021205 16 205 0.0 3.2 0.00 0.00 0.00 68 1017.3
20260505021104 16 205 1.6 3.2 0.00 0.00 0.00 68 1017.2
20260505021005 16 205 1.6 3.2 0.00 0.00 0.00 68 1017.2
20260505020904 16 205 1.6 3.2 0.00 0.00 0.00 68 1017.2
20260505020805 16 205 1.6 3.2 0.00 0.00 0.00 68 1017.2
20260505020704 16 205 1.6 1.6 0.00 0.00 0.00 67 1017.1
20260505020604 16 205 0.0 1.6 0.00 0.00 0.00 67 1017.2
20260505020507 16 205 0.0 1.6 0.00 0.00 0.00 67 1017.3
20260505020404 16 205 0.0 1.6 0.00 0.00 0.00 67 1017.2
20260505020204 16 205 0.0 1.6 0.00 0.00 0.00 67 1017.3
20260505020104 16 205 0.0 1.6 0.00 0.00 0.00 67 1017.3
20260505020006 16 205 0.0 1.6 0.00 0.00 0.00 66 1017.3
20260505015704 17 205 0.0 3.2 0.00 0.00 0.00 66 1017.2
20260505015604 17 205 0.0 3.2 0.00 0.00 0.00 66 1017.3
20260505015506 17 205 0.0 3.2 0.00 0.00 0.00 66 1017.2
20260505015404 17 205 0.0 3.2 0.00 0.00 0.00 66 1017.3
20260505015304 17 205 0.0 3.2 0.00 0.00 0.00 65 1017.3
20260505015204 17 205 0.0 3.2 0.00 0.00 0.00 65 1017.3
20260505014904 17 205 1.6 3.2 0.00 0.00 0.00 65 1017.2
20260505014804 17 206 1.6 3.2 0.00 0.00 0.00 64 1017.3
20260505014704 17 206 1.6 3.2 0.00 0.00 0.00 64 1017.2
20260505014604 17 207 1.6 3.2 0.00 0.00 0.00 64 1017.3
20260505014506 17 207 1.6 3.2 0.00 0.00 0.00 64 1017.2
20260505014404 17 202 1.6 3.2 0.00 0.00 0.00 64 1017.3
20260505014303 17 210 1.6 3.2 0.00 0.00 0.00 64 1017.3
20260505014204 17 210 1.6 3.2 0.00 0.00 0.00 64 1017.3
20260505014104 17 200 1.6 4.8 0.00 0.00 0.00 64 1017.3
20260505014006 17 205 1.6 4.8 0.00 0.00 0.00 64 1017.2
20260505013904 17 205 1.6 4.8 0.00 0.00 0.00 63 1017.2
20260505013803 17 205 1.6 4.8 0.00 0.00 0.00 63 1017.2
20260505013704 17 188 1.6 6.4 0.00 0.00 0.00 63 1017.2
20260505013604 17 186 1.6 6.4 0.00 0.00 0.00 63 1017.1
20260505013505 17 186 1.6 6.4 0.00 0.00 0.00 63 1017.1
20260505013304 17 208 1.6 6.4 0.00 0.00 0.00 62 1017.2
20260505013204 17 188 1.6 6.4 0.00 0.00 0.00 63 1017.0
20260505013104 17 205 1.6 6.4 0.00 0.00 0.00 62 1017.1
20260505013006 17 182 3.2 6.4 0.00 0.00 0.00 62 1017.1
20260505012904 17 200 3.2 6.4 0.00 0.00 0.00 62 1017.1
20260505012704 17 174 3.2 6.4 0.00 0.00 0.00 62 1017.1
20260505012404 17 192 3.2 6.4 0.00 0.00 0.00 62 1017.1
20260505012304 17 201 3.2 6.4 0.00 0.00 0.00 61 1017.0
20260505012204 17 198 3.2 4.8 0.00 0.00 0.00 61 1017.0
20260505012104 17 209 3.2 4.8 0.00 0.00 0.00 61 1017.0
20260505012006 17 194 1.6 4.8 0.00 0.00 0.00 61 1017.0
20260505011903 17 196 1.6 4.8 0.00 0.00 0.00 60 1017.0
20260505011804 18 184 1.6 4.8 0.00 0.00 0.00 60 1017.0
20260505011704 18 173 3.2 4.8 0.00 0.00 0.00 60 1017.0
20260505011604 18 188 3.2 6.4 0.00 0.00 0.00 60 1017.0
20260505011505 18 189 1.6 6.4 0.00 0.00 0.00 60 1016.9
20260505011404 18 208 1.6 6.4 0.00 0.00 0.00 60 1016.9
20260505011103 18 174 1.6 6.4 0.00 0.00 0.00 60 1016.9
20260505011006 18 188 1.6 6.4 0.00 0.00 0.00 59 1016.9
20260505010904 18 196 3.2 6.4 0.00 0.00 0.00 60 1016.8
20260505010804 18 213 3.2 6.4 0.00 0.00 0.00 59 1016.8
20260505010704 18 203 3.2 6.4 0.00 0.00 0.00 59 1016.9
20260505010604 18 187 3.2 6.4 0.00 0.00 0.00 59 1016.9
20260505010506 18 211 3.2 6.4 0.00 0.00 0.00 59 1016.9
20260505010404 18 173 3.2 6.4 0.00 0.00 0.00 59 1016.9
20260505010204 18 186 3.2 8.0 0.00 0.00 0.00 59 1016.9
20260505010104 18 207 4.8 8.0 0.00 0.00 0.00 58 1016.9
20260505010009 18 195 4.8 8.0 0.00 0.00 0.00 58 1016.9
20260505005904 18 178 3.2 8.0 0.00 0.00 0.00 59 1016.8
20260505005805 18 202 3.2 8.0 0.00 0.00 0.00 58 1016.8
20260505005704 18 157 4.8 8.0 0.00 0.00 0.00 58 1016.9
20260505005603 18 206 4.8 8.0 0.00 0.00 0.00 58 1016.9
20260505005506 18 199 4.8 8.0 0.00 0.00 0.00 58 1016.9
20260505005304 18 159 4.8 9.7 0.00 0.00 0.00 58 1016.9
20260505005203 18 165 3.2 8.0 0.00 0.00 0.00 58 1016.8
20260505004904 18 222 3.2 8.0 0.00 0.00 0.00 58 1016.8
20260505004603 18 173 4.8 9.7 0.00 0.00 0.00 57 1016.7
20260505004505 18 196 3.2 11.3 0.00 0.00 0.00 57 1016.7
20260505004404 18 157 3.2 11.3 0.00 0.00 0.00 57 1016.7
20260505004304 18 205 1.6 12.9 0.00 0.00 0.00 57 1016.7
20260505004204 18 175 3.2 12.9 0.00 0.00 0.00 57 1016.8
20260505004103 18 203 3.2 12.9 0.00 0.00 0.00 57 1016.7
20260505004006 18 196 3.2 12.9 0.00 0.00 0.00 57 1016.7
20260505003905 18 219 4.8 12.9 0.00 0.00 0.00 57 1016.7
20260505003804 18 192 6.4 12.9 0.00 0.00 0.00 57 1016.8
20260505003605 18 174 6.4 12.9 0.00 0.00 0.00 57 1016.6
20260505003506 18 178 6.4 12.9 0.00 0.00 0.00 57 1016.7
20260505003403 18 183 6.4 9.7 0.00 0.00 0.00 57 1016.6
20260505003303 18 190 6.4 9.7 0.00 0.00 0.00 57 1016.6
20260505003204 18 173 4.8 9.7 0.00 0.00 0.00 57 1016.5
20260505003103 18 185 3.2 9.7 0.00 0.00 0.00 57 1016.6
20260505003006 19 188 3.2 9.7 0.00 0.00 0.00 57 1016.6
20260505002704 19 171 4.8 9.7 0.00 0.00 0.00 58 1016.5
20260505002605 19 178 3.2 9.7 0.00 0.00 0.00 58 1016.5
20260505002506 19 194 3.2 9.7 0.00 0.00 0.00 57 1016.5
20260505002304 19 159 4.8 9.7 0.00 0.00 0.00 57 1016.5
20260505002204 19 206 3.2 9.7 0.00 0.00 0.00 57 1016.5
20260505002103 19 179 3.2 9.7 0.00 0.00 0.00 57 1016.6
20260505002006 19 213 4.8 9.7 0.00 0.00 0.00 57 1016.5
20260505001903 19 192 4.8 9.7 0.00 0.00 0.00 57 1016.6
20260505001804 19 209 6.4 9.7 0.00 0.00 0.00 57 1016.6
20260505001603 19 185 4.8 8.0 0.00 0.00 0.00 57 1016.5
20260505001505 19 181 4.8 8.0 0.00 0.00 0.00 57 1016.5
20260505001404 19 192 4.8 8.0 0.00 0.00 0.00 57 1016.5
20260505001304 19 206 4.8 9.7 0.00 0.00 0.00 56 1016.5
20260505001203 19 171 4.8 9.7 0.00 0.00 0.00 57 1016.6
20260505001104 20 178 4.8 9.7 0.00 0.00 0.00 56 1016.4
20260505001007 20 217 4.8 9.7 0.00 0.00 0.00 57 1016.6
20260505000904 20 185 4.8 9.7 0.00 0.00 0.00 56 1016.5
20260505000804 20 182 6.4 9.7 0.00 0.00 0.00 56 1016.5
20260505000704 20 245 6.4 9.7 0.00 0.00 0.00 56 1016.5
20260505000603 20 190 6.4 12.9 0.00 0.00 0.00 56 1016.5
20260505000505 20 198 4.8 12.9 0.00 0.00 0.00 56 1016.5
20260505000405 20 182 3.2 12.9 0.00 0.00 0.00 56 1016.5
20260505000304 20 190 3.2 12.9 0.00 0.00 0.00 56 1016.5
20260505000204 20 215 3.2 12.9 0.00 0.00 0.00 56 1016.5
20260505000103 20 195 3.2 12.9 0.00 0.00 0.00 56 1016.5
20260505000008 20 202 4.8 12.9 0.00 0.00 0.00 56 1016.5
20260504235904 20 177 6.4 12.9 0.00 0.00 0.00 55 1016.5
20260504235804 20 182 6.4 12.9 0.00 0.00 0.00 55 1016.5
20260504235704 20 193 4.8 11.3 0.00 0.00 0.00 55 1016.4
20260504235603 20 194 6.4 11.3 0.00 0.00 0.00 55 1016.5
20260504235506 20 163 6.4 11.3 0.00 0.00 0.00 55 1016.4
20260504235404 20 166 8.0 11.3 0.00 0.00 0.00 55 1016.4
20260504235305 20 178 6.4 11.3 0.00 0.00 0.00 55 1016.5
20260504235204 20 152 4.8 11.3 0.00 0.00 0.00 55 1016.5
20260504235103 20 186 4.8 11.3 0.00 0.00 0.00 55 1016.4
20260504235005 20 202 4.8 11.3 0.00 0.00 0.00 55 1016.4
20260504234905 20 140 4.8 11.3 0.00 0.00 0.00 55 1016.5
20260504234805 20 173 4.8 11.3 0.00 0.00 0.00 54 1016.3
20260504234703 20 175 4.8 11.3 0.00 0.00 0.00 54 1016.4
20260504234604 20 191 6.4 11.3 0.00 0.00 0.00 54 1016.3
20260504234506 20 165 6.4 17.7 0.00 0.00 0.00 54 1016.4
20260504234204 20 202 4.8 17.7 0.00 0.00 0.00 54 1016.4
20260504234103 20 190 4.8 17.7 0.00 0.00 0.00 54 1016.4
20260504234005 20 169 4.8 17.7 0.00 0.00 0.00 54 1016.4
20260504233904 20 157 6.4 17.7 0.00 0.00 0.00 54 1016.4
20260504233804 20 155 8.0 17.7 0.00 0.00 0.00 54 1016.4
20260504233704 20 198 8.0 17.7 0.00 0.00 0.00 54 1016.4
20260504233604 20 184 6.4 14.5 0.00 0.00 0.00 54 1016.4
20260504233505 20 198 6.4 14.5 0.00 0.00 0.00 54 1016.4
20260504233405 20 217 4.8 14.5 0.00 0.00 0.00 54 1016.4
20260504233303 20 175 8.0 14.5 0.00 0.00 0.00 54 1016.3
20260504233204 20 153 6.4 14.5 0.00 0.00 0.00 54 1016.3
20260504232904 21 171 4.8 16.1 0.00 0.00 0.00 54 1016.3
20260504232804 21 186 4.8 16.1 0.00 0.00 0.00 54 1016.4
20260504232704 21 195 3.2 17.7 0.00 0.00 0.00 54 1016.4
20260504232604 21 234 3.2 17.7 0.00 0.00 0.00 54 1016.4
20260504232506 21 153 8.0 17.7 0.00 0.00 0.00 53 1016.4
20260504232404 21 137 8.0 17.7 0.00 0.00 0.00 53 1016.4
20260504232305 21 236 8.0 17.7 0.00 0.00 0.00 53 1016.3
20260504232203 21 121 9.7 17.7 0.00 0.00 0.00 54 1016.4
20260504231906 21 128 6.4 17.7 0.00 0.00 0.00 55 1016.4
20260504231804 21 180 4.8 16.1 0.00 0.00 0.00 55 1016.5
20260504231604 21 175 8.0 17.7 0.00 0.00 0.00 54 1016.4
20260504231505 21 182 4.8 17.7 0.00 0.00 0.00 55 1016.3
20260504231403 21 178 4.8 16.1 0.00 0.00 0.00 55 1016.4
20260504231204 21 157 9.7 16.1 0.00 0.00 0.00 55 1016.4
20260504231104 21 188 8.0 14.5 0.00 0.00 0.00 55 1016.4
20260504231006 21 199 8.0 24.1 0.00 0.00 0.00 55 1016.4
20260504230903 21 153 6.4 24.1 0.00 0.00 0.00 55 1016.3
20260504230803 21 144 6.4 24.1 0.00 0.00 0.00 55 1016.4
20260504230704 21 173 6.4 24.1 0.00 0.00 0.00 55 1016.4
20260504230604 21 191 6.4 24.1 0.00 0.00 0.00 55 1016.4
20260504230505 21 224 6.4 24.1 0.00 0.00 0.00 55 1016.4
20260504230403 21 140 9.7 24.1 0.00 0.00 0.00 55 1016.4
20260504230303 21 188 9.7 24.1 0.00 0.00 0.00 55 1016.4
20260504230203 21 188 6.4 24.1 0.00 0.00 0.00 55 1016.4
20260504230104 21 196 6.4 19.3 0.00 0.00 0.00 55 1016.4
20260504230011 21 173 8.0 19.3 0.00 0.00 0.00 55 1016.4
20260504225904 21 171 8.0 20.9 0.00 0.00 0.00 55 1016.4
20260504225804 21 173 4.8 17.7 0.00 0.00 0.00 55 1016.4
20260504225704 21 84 6.4 17.7 0.00 0.00 0.00 55 1016.3
20260504225604 21 175 8.0 17.7 0.00 0.00 0.00 55 1016.3
20260504225506 21 177 6.4 17.7 0.00 0.00 0.00 55 1016.4
20260504225404 21 198 4.8 17.7 0.00 0.00 0.00 55 1016.4
20260504225304 21 69 8.0 17.7 0.00 0.00 0.00 55 1016.3
20260504225204 21 128 8.0 17.7 0.00 0.00 0.00 55 1016.4
20260504225103 21 86 9.7 17.7 0.00 0.00 0.00 55 1016.4
20260504225008 21 107 9.7 17.7 0.00 0.00 0.00 55 1016.3
20260504224903 21 170 6.4 17.7 0.00 0.00 0.00 56 1016.3
20260504224804 21 163 4.8 17.7 0.00 0.00 0.00 56 1016.3
20260504224604 21 197 4.8 12.9 0.00 0.00 0.00 55 1016.3
20260504224507 21 93 4.8 12.9 0.00 0.00 0.00 55 1016.4
20260504224204 21 162 1.6 20.9 0.00 0.00 0.00 56 1016.3
20260504224103 21 116 3.2 20.9 0.00 0.00 0.00 56 1016.4
20260504224006 21 143 4.8 20.9 0.00 0.00 0.00 55 1016.5
20260504223904 21 130 4.8 20.9 0.00 0.00 0.00 55 1016.3
20260504223605 21 66 11.3 20.9 0.00 0.00 0.00 54 1016.4
20260504223506 21 171 8.0 20.9 0.00 0.00 0.00 55 1016.4
20260504223304 21 116 6.4 16.1 0.00 0.00 0.00 55 1016.4
20260504223204 21 211 8.0 25.7 0.00 0.00 0.00 55 1016.4
20260504223103 21 207 9.7 25.7 0.00 0.00 0.00 55 1016.3
20260504223007 21 161 8.0 25.7 0.00 0.00 0.00 55 1016.4
20260504222904 21 159 6.4 25.7 0.00 0.00 0.00 55 1016.3
20260504222803 21 167 6.4 27.4 0.00 0.00 0.00 55 1016.3
20260504222703 21 161 6.4 27.4 0.00 0.00 0.00 54 1016.3
20260504222604 21 92 6.4 27.4 0.00 0.00 0.00 54 1016.3
20260504222506 21 111 9.7 27.4 0.00 0.00 0.00 54 1016.3
20260504222403 21 140 12.9 27.4 0.00 0.00 0.00 54 1016.3
20260504222305 22 82 14.5 27.4 0.00 0.00 0.00 54 1016.3
20260504222205 22 129 9.7 27.4 0.00 0.00 0.00 54 1016.2
20260504222104 22 180 9.7 27.4 0.00 0.00 0.00 54 1016.2
20260504222007 22 140 11.3 27.4 0.00 0.00 0.00 53 1016.2
20260504221905 22 130 12.9 25.7 0.00 0.00 0.00 53 1016.3
20260504221603 22 167 8.0 20.9 0.00 0.00 0.00 53 1016.3
20260504221506 22 92 9.7 20.9 0.00 0.00 0.00 53 1016.3
20260504221403 22 153 9.7 24.1 0.00 0.00 0.00 53 1016.4
20260504221304 22 177 12.9 24.1 0.00 0.00 0.00 53 1016.4
20260504221205 22 94 11.3 24.1 0.00 0.00 0.00 53 1016.3
20260504221103 22 78 6.4 24.1 0.00 0.00 0.00 54 1016.4
20260504221006 22 177 6.4 24.1 0.00 0.00 0.00 53 1016.3
20260504220905 22 157 4.8 24.1 0.00 0.00 0.00 53 1016.3
20260504220804 22 204 8.0 24.1 0.00 0.00 0.00 53 1016.3
20260504220404 22 119 8.0 19.3 0.00 0.00 0.00 53 1016.2
20260504220303 22 242 6.4 19.3 0.00 0.00 0.00 54 1016.3
20260504220204 22 157 6.4 19.3 0.00 0.00 0.00 54 1016.4
20260504220104 22 157 6.4 19.3 0.00 0.00 0.00 53 1016.3
20260504220008 22 177 8.0 19.3 0.00 0.00 0.00 54 1016.3
20260504215904 22 341 6.4 22.5 0.00 0.00 0.00 53 1016.2
20260504215803 22 86 8.0 27.4 0.00 0.00 0.00 53 1016.2
20260504215506 22 188 8.0 27.4 0.00 0.00 0.00 53 1016.2
20260504215404 22 80 8.0 27.4 0.00 0.00 0.00 53 1016.2
20260504215304 22 105 9.7 30.6 0.00 0.00 0.00 53 1016.2
20260504215204 22 148 9.7 30.6 0.00 0.00 0.00 52 1016.2
20260504215104 22 185 9.7 30.6 0.00 0.00 0.00 52 1016.2
20260504215007 22 82 11.3 30.6 0.00 0.00 0.00 52 1016.2
20260504214904 22 157 12.9 30.6 0.00 0.00 0.00 52 1016.2
20260504214804 22 147 11.3 30.6 0.00 0.00 0.00 52 1016.2
20260504214703 22 178 12.9 30.6 0.00 0.00 0.00 52 1016.2
20260504214604 22 148 14.5 30.6 0.00 0.00 0.00 52 1016.2
20260504214505 22 155 11.3 25.7 0.00 0.00 0.00 52 1016.1
20260504214404 22 142 8.0 25.7 0.00 0.00 0.00 52 1016.1
20260504214305 22 191 6.4 25.7 0.00 0.00 0.00 52 1016.2
20260504214203 22 207 8.0 25.7 0.00 0.00 0.00 52 1016.1
20260504214103 22 175 8.0 25.7 0.00 0.00 0.00 52 1016.2
20260504214006 22 102 8.0 25.7 0.00 0.00 0.00 52 1016.2
20260504213903 22 182 9.7 25.7 0.00 0.00 0.00 52 1016.1
20260504213804 22 198 11.3 25.7 0.00 0.00 0.00 52 1016.2
20260504213704 22 145 9.7 25.7 0.00 0.00 0.00 52 1016.2
20260504213604 22 117 6.4 22.5 0.00 0.00 0.00 52 1016.1
20260504213506 22 223 9.7 27.4 0.00 0.00 0.00 52 1016.2
20260504213404 22 200 11.3 27.4 0.00 0.00 0.00 52 1016.2
20260504213305 22 157 9.7 27.4 0.00 0.00 0.00 51 1016.1
20260504213204 22 187 8.0 27.4 0.00 0.00 0.00 51 1016.1
20260504213104 22 130 8.0 27.4 0.00 0.00 0.00 51 1016.1
20260504213007 22 108 6.4 27.4 0.00 0.00 0.00 52 1016.1
20260504212904 22 195 8.0 27.4 0.00 0.00 0.00 52 1016.1
20260504212803 22 142 11.3 27.4 0.00 0.00 0.00 51 1016.1
20260504212704 22 159 14.5 27.4 0.00 0.00 0.00 51 1016.1
20260504212604 22 259 11.3 25.7 0.00 0.00 0.00 50 1016.0
20260504212505 22 101 8.0 25.7 0.00 0.00 0.00 50 1016.0
20260504212403 22 119 8.0 25.7 0.00 0.00 0.00 51 1016.1
20260504212304 22 38 11.3 25.7 0.00 0.00 0.00 50 1016.2
20260504212204 22 116 12.9 29.0 0.00 0.00 0.00 51 1016.1
20260504212104 22 138 11.3 29.0 0.00 0.00 0.00 51 1016.1
20260504212007 22 175 11.3 29.0 0.00 0.00 0.00 50 1016.1
20260504211905 22 140 9.7 29.0 0.00 0.00 0.00 50 1016.1
20260504211804 22 111 8.0 29.0 0.00 0.00 0.00 50 1016.1
20260504211704 22 173 9.7 29.0 0.00 0.00 0.00 50 1016.1
20260504211603 22 151 11.3 29.0 0.00 0.00 0.00 49 1016.1
20260504211506 22 163 14.5 29.0 0.00 0.00 0.00 50 1016.1
20260504211404 22 160 14.5 29.0 0.00 0.00 0.00 50 1016.1
20260504211203 22 248 16.1 27.4 0.00 0.00 0.00 49 1016.2
20260504211104 22 123 11.3 25.7 0.00 0.00 0.00 49 1016.1
20260504211005 22 248 11.3 25.7 0.00 0.00 0.00 50 1016.0
20260504210905 22 94 11.3 25.7 0.00 0.00 0.00 50 1016.1
20260504210803 22 165 11.3 25.7 0.00 0.00 0.00 49 1016.0
20260504210704 22 163 14.5 25.7 0.00 0.00 0.00 49 1016.0
20260504210603 22 144 12.9 25.7 0.00 0.00 0.00 49 1016.0
20260504210506 23 168 12.9 25.7 0.00 0.00 0.00 49 1016.0
20260504210403 23 211 12.9 29.0 0.00 0.00 0.00 49 1015.9
20260504210204 23 176 11.3 29.0 0.00 0.00 0.00 49 1016.0
20260504210104 23 155 9.7 27.4 0.00 0.00 0.00 50 1016.0
20260504210011 23 174 9.7 27.4 0.00 0.00 0.00 50 1016.0
20260504205905 23 131 9.7 27.4 0.00 0.00 0.00 49 1016.0
20260504205805 23 193 9.7 27.4 0.00 0.00 0.00 49 1016.0
20260504205603 23 138 12.9 27.4 0.00 0.00 0.00 48 1016.0
20260504205507 23 137 14.5 27.4 0.00 0.00 0.00 48 1015.9
20260504205404 23 140 14.5 29.0 0.00 0.00 0.00 49 1015.9
20260504205304 23 225 11.3 27.4 0.00 0.00 0.00 49 1015.9
20260504205103 23 198 12.9 25.7 0.00 0.00 0.00 49 1016.0
20260504205006 23 159 12.9 25.7 0.00 0.00 0.00 48 1016.0
20260504204903 23 155 12.9 30.6 0.00 0.00 0.00 48 1016.1
20260504204803 23 195 11.3 30.6 0.00 0.00 0.00 48 1016.1
20260504204703 23 123 9.7 30.6 0.00 0.00 0.00 48 1016.0
20260504204404 23 80 11.3 30.6 0.00 0.00 0.00 48 1016.1
20260504204304 23 153 11.3 30.6 0.00 0.00 0.00 49 1016.1
20260504204204 23 188 12.9 30.6 0.00 0.00 0.00 48 1016.1
20260504204103 23 105 14.5 30.6 0.00 0.00 0.00 47 1016.1
20260504204006 23 161 14.5 30.6 0.00 0.00 0.00 47 1016.1
20260504203903 23 185 12.9 25.7 0.00 0.00 0.00 47 1016.1
20260504203804 23 238 12.9 25.7 0.00 0.00 0.00 47 1016.1
20260504203703 23 170 11.3 25.7 0.00 0.00 0.00 47 1016.1
20260504203603 24 141 12.9 25.7 0.00 0.00 0.00 47 1016.1
20260504203505 24 181 14.5 25.7 0.00 0.00 0.00 46 1016.0
20260504202904 24 168 8.0 22.5 0.00 0.00 0.00 48 1016.1
20260504202803 24 131 8.0 22.5 0.00 0.00 0.00 47 1016.1
20260504202703 24 90 9.7 22.5 0.00 0.00 0.00 47 1016.1
20260504202604 24 161 9.7 24.1 0.00 0.00 0.00 46 1016.1
20260504202506 24 74 9.7 24.1 0.00 0.00 0.00 46 1016.1
20260504202404 24 211 9.7 24.1 0.00 0.00 0.00 47 1016.2
20260504202305 24 135 8.0 24.1 0.00 0.00 0.00 47 1016.1
20260504202203 25 67 9.7 24.1 0.00 0.00 0.00 46 1016.2
20260504202104 25 162 11.3 24.1 0.00 0.00 0.00 46 1016.2
20260504202005 25 92 9.7 24.1 0.00 0.00 0.00 46 1016.2
20260504201905 25 145 9.7 27.4 0.00 0.00 0.00 45 1016.2
20260504201804 25 180 11.3 27.4 0.00 0.00 0.00 45 1016.3
20260504201704 25 170 11.3 27.4 0.00 0.00 0.00 46 1016.2
20260504201405 25 169 8.0 27.4 0.00 0.00 0.00 48 1016.2